DELTA 1 DEB, 10629

Orbit data source: Space-Track

DELTA 1 DEB, 10629 is space debris in LEO originally from a launch on Thu, 14 Jul 1977 UTC launched from the Air Force Eastern Test Range (AFETR). Debris objects in space refer to the collection of defunct objects orbiting the Earth. Examples of debris include non-operational satellites, rocket bodies, and fragments generated from explosions, collisions, or faulty payload assembly.

Loading next visibility...
Identifier
10629, 1977-065EY
Orbit
LEO
Country
Flag of USUS
Related business
Manufacturer
Unknown
Mission
Spacecraft
Bus & Motor
Unknown
Mass
Unknown
Launch date (UTC)
1977-07-14 (48 years ago)
Launch vehicle
Unknown
Launch site
Air Force Eastern Test Range (AFETR)
Object type
Payload
Rocket body
Debris
Shape & HBR
Unknown shape, 0.1 m
Radar Cross Section
Small (<0.1 m²)

Expand to show TLE details & history
Last TLE update: 20 hours ago

TLE from 20 hours ago
0 DELTA 1 DEB
1 10629U 77065EY  25297.46120031  .00001630  00000-0  16463-2 0  9997
2 10629  29.8302  52.1752 0813086 194.3811 163.2239 12.79960629247829
Epoch: 2025-10-24T11:04Z
TLE epoch observation values (Epoch: 2025-10-24T11:04:07.706Z)
Latitude
0.00001°
Longitude
-146.96267°
Altitude
1,944.796 km
Speed
6.647 km/s
True Right ascension
03h 28m 42s
True Declination
0° 00' 00"
Sunlit
Object was in full shadow at epoch
Visualization orbit readout
Latitude
Unknown
Longitude
Unknown
Altitude
Unknown
Speed
Unknown
Apparent Right ascension
Unknown
Apparent Declination
Unknown
Sunlit
N/A
Visualization observer readout
Local Sidereal Time
02:03:27
Azimuth
Unknown
Elevation
Unknown
Doppler factor
Unknown
Orbital elements
Apogee altitude
1,973.236 km
Perigee altitude
717.279 km
Semi-major axis
7,723.395 km
Eccentricity
0.08131
Inclination
29.8302°
RAAN
52.1752°
Arg. of periapsis
194.3811°
True anomaly
165.67322°
Mean anomaly
163.2239°
Eccentric anomaly
164.47113°
Mean motion
3.19765 °/min
Orbital period
112.58 mins
BSTAR
0.0016463
Loading maneuver chart data...
Computing Atmospheric mass density...

Documentation

Showing up to 5 results
|